Нью-Хейвен

США     41˚18′26″N   72˚55′32″W
темп.,
°C
ветер,
м/с
пор.,
м/с
влажн.,
%
обл.,
%
осадки,
мм/ч
давл.,
гПа
погр.,
м
5 декабря, сб
сб501:00+9˚зюз2389100 5.1 1012317
04:00+8˚ссв3492100 1.8 1009320
07:00+7˚ссв81289100 11.6 1005558
10:00+5˚с91589100 13.9 1001547
13:00+3˚ссз121993100 33.7 998898
16:00+4˚сз101787100 6.4 10011121
19:00+5˚сз9167687 6.5 10041230
22:00+3˚сз917680 0.0 10051037
6 декабря, вс
вс601:00+2˚сз916690 0.0 1005929
04:00+2˚зсз714670 0.0 1006976
07:00+1˚зсз713660 0.0 1007848
10:00+2˚сз611600 0.0 1007938
13:00+4˚зсз610540 0.0 10061216
16:00+4˚зсз69540 0.0 10081105
19:00+2˚зсз59630 0.0 1009672
22:00зсз48650 0.0 1009599
7 декабря, пн
пн701:00з476317 0.0 1009532
04:00з356366 0.0 1009427
07:00сз246662 0.0 1009297
10:00+1˚сз245892 0.0 1009579
13:00+3˚з244985 0.0 10061055
16:00+3˚сз455412 0.0 1006887
19:00+1˚ссз355819 0.0 1007587
22:00ссз61166100 0.0 1007680
8 декабря, вт
вт801:00−1˚ссз587069 0.0 1007614
04:00−1˚ссз69721 0.0 1008539
07:00−2˚ссз587111 0.0 1009460
10:00ссз58630 0.0 1010651
13:00+3˚ссз58570 0.0 1010850
16:00+2˚сз59580 0.0 1010776
19:00+1˚ссз511580 0.0 1013577
22:00ссз49600 0.0 1014439
9 декабря, ср
ср901:00сз59550 0.0 1014478
04:00−1˚зсз24570 0.0 1014233
07:00зсз235933 0.0 1015212
10:00+2˚зюз3455100 0.0 1015407
13:00+4˚зюз5760100 0.0 1013662
16:00+4˚зюз5963100 0.0 1012695
19:00+4˚з61170100 0.0 1013741
22:00+4˚зюз6117288 0.0 1012600